Wind_Speed
12 13 15 16 18 19 21 25 28 31 35 41 42 40 38 35 39 49 64 74 81 92 93 92 89 84 81 72 71 71 69 70 67 68 65 58 57 54 53 52 53 53 48 49 48
15 16 17 18 20 21 22 25 28 32 35 41 44 43 41 33 31 38 49 66 80 89 95 95 92 88 83 76 73 67 71 69 70 65 65 59 60 58 58 56 55 54 54 53 55
16 17 18 19 21 23 24 26 28 32 35 40 44 44 42 32 23 29 41 56 73 84 92 94 93 90 86 79 72 72 70 70 73 70 71 64 64 62 61 58 59 51 54 61 62
16 17 19 20 22 24 25 26 28 31 35 38 43 44 42 32 20 21 34 48 65 78 89 93 95 91 87 82 77 76 73 71 66 66 67 70 67 63 65 65 60 61 61 62 63
17 18 20 21 23 24 26 27 28 31 34 37 41 44 42 35 20 13 28 45 60 73 84 91 92 92 87 85 79 79 75 69 68 65 64 63 60 68 68 69 63 71 67 67 68
20 21 21 22 24 24 25 27 29 30 33 36 39 42 42 39 23 8 21 39 53 67 79 86 90 90 87 82 82 78 73 74 70 70 64 61 52 59 56 56 66 70 73 71 70
23 23 22 23 24 25 26 26 28 29 31 33 36 39 40 38 29 12 11 30 45 59 71 78 82 86 84 83 80 77 75 74 75 71 67 65 62 54 60 63 72 69 68 69 70
23 23 23 25 25 26 27 28 28 28 29 31 33 35 37 36 32 19 2 21 37 50 63 71 77 78 82 78 80 78 77 75 76 71 67 69 70 57 71 72 70 69 68 68 68
25 25 26 26 26 26 26 27 28 27 27 28 30 30 32 33 29 23 11 10 27 44 57 64 70 73 77 77 78 78 77 76 75 69 73 73 73 70 77 73 74 75 75 74 75
28 28 29 28 27 26 27 27 29 29 27 26 26 27 26 28 27 22 13 6 17 33 47 54 62 68 72 75 76 77 76 77 77 73 72 74 75 76 73 76 79 79 81 81 81
31 30 30 29 27 27 27 30 31 30 28 26 24 23 23 23 21 18 13 5 12 24 36 43 53 63 68 67 70 74 75 77 76 75 70 76 75 77 78 78 83 88 87 87 87
32 31 31 29 29 30 31 31 32 30 28 27 25 22 20 20 17 13 8 1 7 18 29 36 43 46 54 60 67 72 75 78 78 77 78 81 82 83 85 84 86 88 90 91 92
34 34 33 32 31 33 34 33 31 30 30 28 26 25 22 20 18 12 9 8 11 17 23 26 34 43 48 53 59 66 71 74 76 78 80 82 80 86 86 88 89 92 92 92 92
37 36 35 34 34 36 37 36 34 33 33 32 31 28 26 23 21 18 16 16 18 23 26 31 37 40 44 49 53 62 61 70 75 78 81 81 82 86 91 87 92 92 94 95 95
39 39 39 38 39 39 39 39 37 36 35 35 34 32 30 28 26 24 24 23 23 28 30 35 39 41 45 47 54 53 57 61 64 67 71 74 78 80 88 90 86 89 93 94 95
41 41 41 42 42 43 42 41 40 38 38 37 36 34 33 31 29 28 28 28 30 32 33 37 41 44 47 52 55 56 58 60 63 65 68 74 71 78 90 83 86 89 89 93 96
45 45 46 47 47 46 43 41 41 40 39 38 36 34 32 30 29 31 31 31 33 35 38 41 43 46 49 52 55 57 59 63 65 69 74 71 72 79 88 83 85 89 92 91 96
50 49 49 48 47 46 44 43 42 41 38 35 33 31 28 27 27 29 32 33 35 37 39 43 45 48 51 53 55 59 61 64 67 72 74 73 75 87 85 88 87 89 92 98 94
41 42 43 44 45 43 41 40 38 33 31 30 29 27 25 25 26 28 30 32 34 37 39 42 43 46 50 54 57 59 63 66 68 71 73 76 79 86 92 88 88 92 99 101 102
32 31 31 29 29 29 29 27 25 25 27 27 28 29 29 31 32 32 32 34 36 38 40 42 43 46 48 51 53 57 59 63 65 67 70 72 75 85 91 91 89 90 96 100 102
31 28 27 26 26 26 27 28 30 31 32 34 35 36 37 37 38 38 38 41 41 43 45 47 49 50 52 54 58 61 65 65 67 69 70 71 76 85 88 92 94 92 96 96 96
36 36 35 34 33 33 33 34 35 36 37 38 38 38 39 40 40 41 43 43 43 44 45 47 49 51 54 56 59 62 65 69 69 72 75 80 76 83 93 97 98 100 101 102 102
41 40 38 38 37 36 36 37 39 38 38 39 39 39 39 40 41 41 41 43 45 45 44 44 45 48 52 54 55 58 60 64 66 67 70 73 69 80 86 94 96 99 100 105 108
45 43 42 40 37 37 40 41 40 39 40 36 34 34 32 29 28 25 23 26 27 30 33 36 41 44 47 51 53 53 57 60 63 63 65 69 68 75 80 85 91 94 97 99 101
47 43 42 41 38 39 41 40 40 40 36 31 29 27 28 29 28 28 28 29 31 34 37 39 43 45 51 52 56 57 59 62 64 66 67 70 73 76 82 85 88 92 93 92 92
46 45 43 41 39 39 36 35 35 29 26 26 25 26 27 27 27 27 28 28 30 34 37 41 44 47 53 53 57 58 62 62 65 68 70 71 72 78 74 79 81 82 82 80 79
45 44 42 38 35 33 28 25 21 19 20 22 22 23 23 22 21 23 24 26 29 32 37 41 44 47 53 53 58 58 63 65 66 70 72 71 74 74 72 70 67 63 58 58 56
Wind_Direction
295 298 299 299 302 304 307 312 316 321 326 333 333 327 318 292 262 242 229 220 214 215 214 213 214 215 219 219 219 222 225 225 225 230 232 233 236 239 237 238 240 238 234 237 242
294 301 302 304 306 309 314 318 323 327 331 337 341 335 330 308 271 247 228 220 212 212 212 212 212 213 216 217 219 222 225 228 227 229 232 232 236 239 244 239 240 242 241 240 241
298 301 302 305 310 313 318 322 326 331 335 339 345 342 339 322 286 245 225 217 211 210 210 211 211 212 214 216 217 221 222 227 229 229 231 235 239 239 243 246 244 245 247 244 244
298 302 306 307 310 315 320 325 329 332 338 341 347 348 346 337 307 249 223 213 209 208 209 209 210 211 213 214 216 218 221 227 228 230 232 236 240 242 245 248 251 255 250 249 248
299 304 307 309 312 316 321 326 330 333 338 342 347 353 353 353 331 263 219 211 207 206 207 208 209 210 211 213 215 221 223 227 230 231 233 236 242 242 246 250 251 251 252 251 251
301 304 307 310 313 316 321 326 330 332 337 342 346 356 358 1 356 295 218 211 207 205 206 208 209 210 212 213 215 221 223 226 230 232 233 236 230 248 245 249 249 248 250 251 253
299 304 308 310 313 315 319 323 328 331 335 341 346 352 2 3 10 360 223 207 208 205 204 208 209 210 211 214 215 219 223 226 230 233 234 235 236 243 249 247 247 251 252 256 257
297 301 306 309 312 315 317 320 323 328 333 338 344 349 360 7 12 17 310 205 200 202 203 206 209 210 212 214 217 219 224 227 230 234 238 237 237 230 242 243 251 256 257 258 261
294 299 304 308 312 315 318 322 324 326 329 333 339 347 353 6 14 22 37 182 194 199 201 204 209 210 213 215 218 220 223 228 231 234 235 241 244 241 245 251 254 257 258 260 261
294 297 302 305 309 311 313 317 320 321 324 330 334 340 350 357 8 21 39 115 186 197 201 204 208 211 214 216 220 223 225 229 233 231 239 241 246 249 249 252 254 255 257 259 260
291 295 298 300 303 305 308 312 315 315 316 317 325 332 341 350 356 7 27 74 173 192 199 206 210 212 215 218 223 225 227 231 232 234 238 243 246 249 250 247 250 254 256 259 262
287 290 293 294 298 303 306 308 310 310 312 314 312 315 321 331 339 340 347 9 177 197 204 208 212 215 219 223 225 228 230 233 235 236 237 240 244 247 250 253 254 256 259 261 261
286 287 288 289 292 297 302 305 304 304 306 307 306 305 302 303 307 307 286 263 226 205 206 208 211 218 223 228 230 232 234 238 240 240 242 243 245 248 250 252 254 257 258 260 261
281 282 284 286 290 295 298 300 299 300 301 300 299 297 295 292 285 281 272 252 242 230 225 219 220 222 226 229 233 235 237 240 241 243 245 247 248 252 251 252 254 255 259 260 261
280 281 283 285 288 290 292 296 297 297 298 297 295 292 287 285 281 276 267 258 247 241 237 234 234 236 236 236 238 239 239 243 244 246 248 251 250 255 257 252 255 260 258 260 262
277 279 281 282 284 287 290 293 292 293 294 294 291 287 282 277 274 272 267 262 257 252 247 243 243 243 241 242 243 245 246 247 249 249 250 250 253 255 258 256 259 258 260 262 261
276 277 278 279 282 284 287 289 289 291 291 289 287 284 281 278 274 270 267 263 259 255 255 253 251 249 249 250 251 251 251 251 253 253 254 254 255 257 261 261 259 261 261 262 265
277 276 275 278 279 282 284 286 288 289 287 284 282 281 279 277 273 270 267 265 263 260 255 254 254 254 255 256 255 256 256 256 256 257 258 260 259 261 261 261 262 265 266 265 263
282 278 276 274 276 278 281 282 283 283 281 280 278 278 278 275 272 271 270 269 267 267 266 263 259 259 259 259 260 259 260 260 260 261 261 263 264 265 261 262 267 266 267 268 269
293 289 281 278 277 277 278 277 279 280 282 282 282 280 279 280 278 275 272 270 268 267 266 266 266 267 267 266 265 264 263 264 264 264 265 266 267 266 271 268 265 265 266 270 271
286 282 283 279 275 276 276 277 280 281 281 281 281 282 282 282 280 278 277 275 271 269 268 267 267 266 266 267 267 267 269 266 267 268 266 266 268 268 269 270 268 266 266 266 267
277 279 280 280 281 280 279 278 278 278 278 279 280 281 282 284 284 282 279 277 275 275 274 270 269 267 266 266 267 269 268 268 268 267 270 269 267 267 270 271 270 271 273 273 272
276 276 278 279 282 282 282 282 283 281 283 284 282 285 286 286 284 282 278 275 274 273 272 272 270 270 270 269 270 270 269 269 269 268 267 267 266 267 267 268 269 271 272 272 272
270 273 274 277 281 281 281 283 284 281 281 279 281 282 282 284 286 284 280 277 274 272 272 273 274 274 275 277 278 275 275 278 279 278 276 276 272 274 273 272 273 273 273 273 274
259 263 267 271 275 280 283 283 280 277 274 271 273 271 275 277 279 282 282 282 282 280 280 281 281 281 280 280 280 280 280 282 281 280 278 276 276 274 276 278 278 279 279 280 280
254 258 260 265 273 279 280 282 281 271 264 263 264 269 271 276 282 286 288 288 288 288 288 286 285 284 282 282 280 280 282 283 281 278 280 282 281 280 280 281 282 279 279 281 279
253 250 253 261 267 272 275 276 269 256 257 260 266 272 279 284 289 296 300 303 306 311 307 300 294 291 290 287 286 286 286 288 287 286 286 286 286 289 290 289 284 283 285 283 284
Height
10840 10838 10837 10834 10831 10828 10825 10820 10814 10807 10799 10789 10777 10766 10754 10743 10738 10737 10741 10757 10776 10785 10803 10818 10831 10845 10853 10867 10875 10883 10892 10900 10907 10910 10915 10923 10925 10929 10931 10933 10934 10935 10943 10944 10945
10837 10834 10832 10830 10827 10823 10819 10814 10807 10800 10792 10782 10770 10757 10743 10731 10724 10723 10730 10740 10754 10769 10786 10803 10818 10832 10843 10857 10866 10876 10882 10889 10894 10907 10911 10916 10917 10922 10921 10925 10928 10931 10936 10938 10935
10833 10831 10828 10825 10821 10818 10813 10808 10802 10795 10787 10777 10766 10752 10737 10723 10715 10713 10718 10728 10742 10758 10774 10790 10808 10820 10834 10847 10859 10864 10873 10878 10886 10895 10901 10907 10909 10914 10916 10919 10918 10929 10929 10924 10926
10829 10827 10824 10821 10817 10813 10808 10803 10797 10790 10782 10773 10762 10750 10735 10719 10711 10707 10712 10720 10731 10746 10762 10779 10795 10810 10825 10838 10847 10854 10863 10870 10879 10886 10893 10897 10902 10908 10907 10909 10917 10917 10916 10914 10915
10825 10823 10821 10817 10813 10809 10804 10799 10793 10786 10779 10770 10760 10748 10734 10719 10709 10704 10707 10713 10723 10737 10753 10768 10785 10800 10816 10827 10842 10846 10856 10864 10870 10876 10883 10890 10894 10896 10900 10902 10910 10900 10905 10905 10904
10821 10819 10817 10813 10810 10805 10801 10796 10790 10784 10776 10768 10759 10749 10736 10722 10710 10705 10705 10711 10719 10731 10747 10762 10776 10795 10809 10826 10832 10843 10852 10855 10863 10867 10876 10881 10886 10886 10889 10891 10891 10892 10891 10894 10896
10816 10814 10812 10809 10806 10802 10797 10793 10788 10782 10775 10768 10760 10750 10740 10727 10716 10709 10709 10713 10720 10732 10746 10763 10779 10789 10807 10815 10828 10837 10842 10847 10852 10858 10867 10871 10875 10878 10881 10883 10879 10880 10881 10883 10884
10812 10810 10807 10804 10801 10798 10794 10790 10785 10780 10774 10768 10761 10753 10745 10735 10723 10716 10714 10716 10722 10734 10747 10760 10774 10790 10798 10816 10819 10829 10835 10839 10842 10853 10855 10860 10861 10869 10869 10869 10869 10870 10869 10870 10869
10807 10805 10803 10800 10797 10794 10791 10787 10782 10778 10773 10768 10762 10756 10749 10742 10734 10726 10722 10723 10728 10736 10747 10759 10771 10786 10796 10805 10813 10821 10827 10831 10840 10845 10847 10850 10851 10862 10856 10858 10858 10855 10855 10855 10856
10803 10800 10798 10796 10793 10790 10787 10784 10780 10775 10772 10768 10763 10758 10754 10748 10743 10737 10733 10733 10737 10743 10753 10762 10772 10782 10790 10799 10804 10812 10821 10824 10830 10836 10842 10841 10842 10843 10848 10846 10841 10842 10839 10839 10839
10797 10795 10793 10791 10788 10786 10783 10780 10777 10773 10770 10767 10764 10760 10756 10753 10750 10748 10744 10743 10745 10750 10757 10764 10771 10776 10784 10799 10805 10805 10811 10813 10818 10828 10832 10827 10831 10828 10827 10832 10826 10823 10823 10822 10823
10790 10789 10787 10785 10783 10780 10778 10776 10773 10769 10767 10764 10762 10760 10758 10756 10754 10752 10752 10752 10752 10755 10759 10764 10770 10783 10785 10788 10794 10798 10801 10803 10810 10818 10820 10810 10815 10812 10811 10814 10813 10810 10809 10807 10807
10783 10782 10780 10778 10777 10775 10772 10770 10768 10765 10763 10761 10759 10757 10757 10756 10755 10755 10755 10756 10757 10758 10760 10765 10770 10773 10779 10783 10787 10789 10792 10798 10802 10804 10800 10803 10806 10796 10799 10796 10796 10792 10792 10792 10791
10774 10773 10772 10771 10770 10767 10765 10764 10762 10760 10759 10756 10755 10754 10753 10752 10752 10752 10753 10755 10756 10758 10760 10763 10764 10768 10771 10774 10776 10776 10789 10781 10786 10787 10786 10791 10789 10784 10779 10784 10777 10779 10775 10775 10774
10767 10765 10764 10763 10761 10760 10757 10756 10755 10753 10752 10750 10748 10747 10747 10747 10747 10747 10748 10749 10751 10753 10755 10757 10759 10761 10763 10766 10763 10769 10768 10771 10772 10773 10774 10771 10774 10760 10757 10764 10766 10760 10758 10756 10754
10759 10757 10755 10754 10752 10750 10749 10748 10746 10745 10744 10742 10740 10739 10738 10738 10740 10740 10740 10742 10743 10745 10747 10748 10750 10751 10753 10753 10755 10757 10758 10759 10759 10760 10759 10753 10762 10752 10730 10751 10747 10744 10740 10735 10732
10749 10749 10747 10744 10743 10741 10740 10739 10738 10737 10735 10733 10731 10730 10729 10730 10731 10731 10732 10733 10734 10734 10736 10737 10739 10740 10741 10742 10744 10744 10745 10744 10746 10744 10738 10749 10748 10734 10718 10733 10727 10722 10719 10719 10709
10736 10736 10736 10734 10732 10731 10730 10729 10728 10727 10725 10723 10722 10722 10722 10722 10722 10722 10722 10724 10723 10723 10725 10725 10727 10727 10728 10729 10730 10730 10731 10732 10732 10729 10727 10732 10729 10708 10712 10706 10710 10707 10700 10690 10697
10722 10723 10723 10722 10721 10721 10721 10720 10719 10718 10717 10716 10715 10714 10714 10714 10714 10714 10714 10714 10714 10713 10713 10713 10716 10716 10716 10715 10715 10716 10714 10714 10714 10713 10713 10710 10706 10693 10681 10692 10696 10686 10675 10670 10670
10713 10713 10712 10712 10712 10712 10712 10712 10711 10710 10709 10709 10708 10707 10707 10707 10706 10705 10706 10705 10705 10703 10703 10703 10703 10702 10701 10700 10701 10698 10699 10696 10696 10697 10696 10694 10689 10669 10659 10663 10669 10668 10656 10650 10647
10706 10706 10705 10705 10705 10705 10705 10705 10704 10702 10702 10701 10699 10698 10697 10697 10696 10695 10695 10694 10693 10692 10692 10692 10691 10690 10688 10688 10685 10683 10678 10680 10679 10677 10677 10678 10668 10651 10645 10637 10635 10642 10633 10633 10630
10699 10699 10698 10697 10698 10697 10697 10696 10695 10694 10693 10692 10691 10689 10688 10687 10685 10684 10683 10681 10680 10679 10678 10677 10676 10675 10673 10674 10670 10666 10663 10661 10662 10658 10653 10647 10656 10631 10624 10616 10613 10609 10606 10605 10603
10690 10690 10689 10688 10688 10688 10687 10686 10685 10684 10683 10682 10681 10679 10677 10676 10674 10672 10670 10668 10667 10665 10664 10663 10662 10659 10656 10656 10654 10650 10645 10641 10641 10639 10634 10631 10629 10612 10608 10594 10587 10584 10582 10575 10570
10679 10680 10679 10679 10678 10678 10677 10676 10675 10673 10673 10672 10672 10670 10668 10666 10664 10663 10661 10659 10658 10656 10654 10652 10649 10647 10643 10637 10636 10635 10628 10624 10619 10618 10612 10603 10607 10592 10583 10576 10567 10561 10555 10550 10545
10666 10667 10668 10669 10669 10668 10666 10665 10663 10662 10662 10663 10663 10662 10661 10659 10657 10655 10654 10653 10650 10648 10645 10643 10639 10636 10629 10626 10620 10616 10611 10606 10601 10595 10591 10586 10582 10575 10562 10555 10547 10536 10529 10524 10519
10652 10655 10657 10658 10659 10658 10656 10654 10652 10651 10652 10653 10654 10654 10653 10652 10651 10650 10647 10646 10643 10640 10636 10632 10628 10622 10613 10612 10606 10601 10593 10590 10582 10573 10568 10564 10559 10546 10549 10533 10523 10512 10507 10502 10492
10639 10642 10645 10649 10649 10648 10648 10646 10644 10644 10645 10646 10646 10646 10646 10645 10644 10642 10640 10638 10635 10632 10627 10621 10616 10609 10599 10596 10589 10585 10575 10569 10562 10552 10546 10543 10532 10526 10519 10509 10497 10491 10490 10481 10474